| time (UTC) | temp F | wind direction | speed knots | gust knots | rain 1hr in | rain 24hr in | rain mn in | humidity % | barometer mb |
| 20260906123113 | 61 | 83 | 1.7 | 5.2 | 0.00 | 0.01 | 0.01 | 94 | 1020.2 |
| 20260906122545 | 61 | 0 | 0.0 | 0.9 | 0.00 | 0.01 | 0.01 | 94 | 1020.1 |
| 20260906122043 | 61 | 0 | 0.0 | 1.7 | 0.00 | 0.01 | 0.01 | 94 | 1019.9 |
| 20260906121607 | 61 | 0 | 0.0 | 2.6 | 0.00 | 0.01 | 0.01 | 94 | 1020.0 |
| 20260906121046 | 61 | 0 | 0.0 | 2.6 | 0.01 | 0.01 | 0.01 | 94 | 1019.9 |
| 20260906120543 | 60 | 0 | 0.0 | 2.6 | 0.01 | 0.01 | 0.01 | 94 | 1019.8 |
| 20260906120145 | 60 | 80 | 0.0 | 2.6 | 0.01 | 0.01 | 0.01 | 94 | 1019.9 |
| 20260906115544 | 60 | 0 | 0.0 | 0.0 | 0.01 | 0.01 | 0.01 | 94 | 1020.0 |
| 20260906115046 | 60 | 0 | 0.0 | 0.0 | 0.01 | 0.01 | 0.01 | 94 | 1019.9 |
| 20260906114632 | 60 | 0 | 0.0 | 0.0 | 0.01 | 0.01 | 0.01 | 94 | 1019.9 |
| 20260906114042 | 60 | 0 | 0.0 | 0.0 | 0.01 | 0.01 | 0.01 | 94 | 1019.9 |
| 20260906113543 | 61 | 0 | 0.0 | 0.0 | 0.01 | 0.01 | 0.01 | 94 | 1019.9 |
| 20260906113103 | 61 | 0 | 0.0 | 0.0 | 0.01 | 0.01 | 0.01 | 94 | 1019.9 |
| 20260906112545 | 61 | 0 | 0.0 | 0.0 | 0.01 | 0.01 | 0.01 | 94 | 1019.9 |
| 20260906112045 | 61 | 0 | 0.0 | 0.9 | 0.01 | 0.01 | 0.01 | 94 | 1019.8 |
| 20260906111617 | 61 | 0 | 0.0 | 0.9 | 0.00 | 0.00 | 0.00 | 94 | 1019.7 |
| 20260906111046 | 61 | 0 | 0.0 | 0.9 | 0.00 | 0.00 | 0.00 | 94 | 1019.6 |
| 20260906110544 | 61 | 0 | 0.0 | 0.0 | 0.00 | 0.00 | 0.00 | 94 | 1019.3 |
| 20260906110053 | 61 | 0 | 0.0 | 1.7 | 0.00 | 0.00 | 0.00 | 94 | 1019.1 |
| 20260906105543 | 61 | 0 | 0.0 | 1.7 | 0.00 | 0.00 | 0.00 | 94 | 1018.8 |
| 20260906105045 | 61 | 0 | 0.9 | 1.7 | 0.00 | 0.00 | 0.00 | 94 | 1018.7 |
| 20260906104600 | 62 | 0 | 0.0 | 2.6 | 0.00 | 0.00 | 0.00 | 94 | 1018.8 |
| 20260906104042 | 62 | 0 | 0.0 | 2.6 | 0.00 | 0.00 | 0.00 | 94 | 1018.8 |
| 20260906103542 | 62 | 0 | 0.0 | 2.6 | 0.00 | 0.00 | 0.00 | 94 | 1018.8 |
| 20260906103057 | 62 | 80 | 0.0 | 2.6 | 0.00 | 0.00 | 0.00 | 94 | 1018.9 |
| 20260906102547 | 62 | 0 | 0.0 | 0.9 | 0.00 | 0.00 | 0.00 | 94 | 1018.9 |
| 20260906102048 | 62 | 0 | 0.0 | 0.0 | 0.00 | 0.00 | 0.00 | 94 | 1018.9 |
| 20260906101554 | 62 | 0 | 0.0 | 0.0 | 0.00 | 0.00 | 0.00 | 94 | 1019.0 |
| 20260906101050 | 62 | 0 | 0.0 | 0.0 | 0.00 | 0.00 | 0.00 | 94 | 1018.9 |
| 20260906100548 | 62 | 0 | 0.0 | 0.0 | 0.00 | 0.00 | 0.00 | 94 | 1018.8 |
| 20260906100103 | 62 | 0 | 0.0 | 0.0 | 0.00 | 0.00 | 0.00 | 94 | 1018.8 |
| 20260906095547 | 62 | 0 | 0.0 | 0.0 | 0.00 | 0.00 | 0.00 | 94 | 1018.8 |
| 20260906095048 | 62 | 0 | 0.0 | 0.0 | 0.00 | 0.00 | 0.00 | 94 | 1018.9 |
| 20260906094604 | 63 | 0 | 0.0 | 0.0 | 0.00 | 0.00 | 0.00 | 94 | 1018.9 |
| 20260906094047 | 63 | 0 | 0.0 | 0.0 | 0.00 | 0.00 | 0.00 | 94 | 1018.8 |
| 20260906093548 | 63 | 0 | 0.0 | 0.0 | 0.00 | 0.00 | 0.00 | 94 | 1018.8 |
| 20260906093057 | 63 | 0 | 0.0 | 0.0 | 0.00 | 0.00 | 0.00 | 94 | 1018.9 |
| 20260906092548 | 63 | 0 | 0.0 | 0.0 | 0.00 | 0.00 | 0.00 | 94 | 1019.0 |
| 20260906092048 | 63 | 0 | 0.0 | 0.0 | 0.00 | 0.00 | 0.00 | 94 | 1018.9 |
| 20260906091554 | 63 | 0 | 0.0 | 0.0 | 0.00 | 0.00 | 0.00 | 94 | 1018.8 |
| 20260906091047 | 63 | 0 | 0.0 | 0.0 | 0.00 | 0.00 | 0.00 | 94 | 1018.7 |
| 20260906090547 | 63 | 0 | 0.0 | 0.0 | 0.00 | 0.00 | 0.00 | 94 | 1018.8 |
| 20260906085551 | 63 | 0 | 0.0 | 0.0 | 0.00 | 0.00 | 0.00 | 94 | 1019.0 |
| 20260906085047 | 63 | 0 | 0.0 | 0.0 | 0.00 | 0.00 | 0.00 | 94 | 1019.0 |
| 20260906084603 | 63 | 0 | 0.0 | 0.0 | 0.00 | 0.00 | 0.00 | 94 | 1018.9 |
| 20260906084047 | 63 | 0 | 0.0 | 0.0 | 0.00 | 0.00 | 0.00 | 94 | 1018.8 |
| 20260906083548 | 63 | 0 | 0.0 | 0.0 | 0.00 | 0.00 | 0.00 | 94 | 1018.8 |
| 20260906083103 | 63 | 0 | 0.0 | 0.0 | 0.00 | 0.00 | 0.00 | 94 | 1018.8 |
| 20260906082544 | 63 | 0 | 0.0 | 0.0 | 0.00 | 0.00 | 0.00 | 94 | 1018.9 |
| 20260906082048 | 63 | 0 | 0.0 | 0.0 | 0.00 | 0.00 | 0.00 | 94 | 1018.9 |
| 20260906081602 | 63 | 0 | 0.0 | 0.0 | 0.00 | 0.00 | 0.00 | 94 | 1018.9 |
| 20260906081047 | 63 | 0 | 0.0 | 0.0 | 0.00 | 0.00 | 0.00 | 94 | 1018.8 |
| 20260906080547 | 63 | 0 | 0.0 | 0.0 | 0.00 | 0.00 | 0.00 | 94 | 1018.9 |
| 20260906080103 | 63 | 0 | 0.0 | 0.0 | 0.00 | 0.00 | 0.00 | 94 | 1018.9 |
| 20260906075551 | 63 | 0 | 0.0 | 0.0 | 0.00 | 0.00 | 0.00 | 93 | 1018.7 |
| 20260906075047 | 62 | 0 | 0.0 | 0.0 | 0.00 | 0.00 | 0.00 | 93 | 1018.8 |
| 20260906074603 | 62 | 0 | 0.0 | 0.0 | 0.00 | 0.00 | 0.00 | 93 | 1018.8 |
| 20260906074048 | 62 | 0 | 0.0 | 0.0 | 0.00 | 0.00 | 0.00 | 92 | 1018.7 |
| 20260906073548 | 63 | 0 | 0.0 | 0.0 | 0.00 | 0.00 | 0.00 | 92 | 1018.8 |
| 20260906073057 | 63 | 0 | 0.0 | 0.0 | 0.00 | 0.00 | 0.00 | 93 | 1018.8 |
| 20260906072549 | 63 | 0 | 0.0 | 0.0 | 0.00 | 0.00 | 0.00 | 93 | 1018.7 |
| 20260906072047 | 63 | 0 | 0.0 | 0.0 | 0.00 | 0.00 | 0.00 | 92 | 1018.8 |
| 20260906071557 | 63 | 0 | 0.0 | 0.0 | 0.00 | 0.00 | 0.00 | 92 | 1018.9 |
| 20260906071049 | 63 | 0 | 0.0 | 0.0 | 0.00 | 0.00 | 0.00 | 92 | 1018.8 |
| 20260906070550 | 63 | 0 | 0.0 | 0.0 | 0.00 | 0.00 | 0.00 | 92 | 1018.9 |
| 20260906065548 | 64 | 0 | 0.0 | 0.0 | 0.00 | 0.00 | 0.00 | 92 | 1018.8 |
| 20260906065048 | 64 | 0 | 0.0 | 0.0 | 0.00 | 0.00 | 0.00 | 92 | 1019.0 |
| 20260906064556 | 64 | 0 | 0.0 | 0.0 | 0.00 | 0.00 | 0.00 | 92 | 1019.0 |
| 20260906064048 | 64 | 0 | 0.0 | 0.0 | 0.00 | 0.00 | 0.00 | 92 | 1019.0 |
| 20260906063547 | 64 | 0 | 0.0 | 0.0 | 0.00 | 0.00 | 0.00 | 92 | 1018.9 |
| 20260906063055 | 64 | 0 | 0.0 | 0.0 | 0.00 | 0.00 | 0.00 | 92 | 1018.9 |
| 20260906062547 | 64 | 0 | 0.0 | 0.0 | 0.00 | 0.00 | 0.00 | 92 | 1018.9 |
| 20260906062047 | 64 | 0 | 0.0 | 0.0 | 0.00 | 0.00 | 0.00 | 92 | 1019.0 |
| 20260906061556 | 64 | 0 | 0.0 | 0.0 | 0.00 | 0.00 | 0.00 | 92 | 1019.1 |
| 20260906061047 | 65 | 0 | 0.0 | 0.0 | 0.00 | 0.00 | 0.00 | 92 | 1019.1 |
| 20260906060547 | 65 | 0 | 0.0 | 0.0 | 0.00 | 0.00 | 0.00 | 92 | 1019.0 |
| 20260906060100 | 65 | 0 | 0.0 | 0.0 | 0.00 | 0.00 | 0.00 | 92 | 1019.0 |
| 20260906055547 | 65 | 0 | 0.0 | 0.0 | 0.00 | 0.00 | 0.00 | 92 | 1018.9 |
| 20260906055047 | 65 | 0 | 0.0 | 0.0 | 0.00 | 0.00 | 0.00 | 92 | 1019.0 |
| 20260906054616 | 65 | 0 | 0.0 | 0.0 | 0.00 | 0.00 | 0.00 | 92 | 1018.9 |
| 20260906054048 | 65 | 0 | 0.0 | 0.0 | 0.00 | 0.00 | 0.00 | 91 | 1018.9 |
| 20260906053547 | 65 | 0 | 0.0 | 0.0 | 0.00 | 0.00 | 0.00 | 92 | 1018.9 |
| 20260906053059 | 65 | 0 | 0.0 | 0.0 | 0.00 | 0.00 | 0.00 | 92 | 1018.8 |
| 20260906052547 | 65 | 0 | 0.0 | 0.0 | 0.00 | 0.00 | 0.00 | 92 | 1018.8 |
| 20260906052048 | 66 | 0 | 0.0 | 0.0 | 0.00 | 0.00 | 0.00 | 91 | 1018.7 |
| 20260906051556 | 66 | 0 | 0.0 | 0.0 | 0.00 | 0.00 | 0.00 | 91 | 1018.8 |
| 20260906051047 | 66 | 0 | 0.0 | 0.0 | 0.00 | 0.00 | 0.00 | 91 | 1018.8 |
| 20260906050546 | 66 | 0 | 0.0 | 0.0 | 0.00 | 0.00 | 0.00 | 92 | 1018.7 |
| 20260906050104 | 66 | 0 | 0.0 | 0.0 | 0.00 | 0.00 | 0.00 | 92 | 1018.8 |
| 20260906045548 | 66 | 0 | 0.0 | 0.0 | 0.00 | 0.00 | 0.00 | 92 | 1018.9 |
| 20260906045048 | 66 | 0 | 0.0 | 0.0 | 0.00 | 0.00 | 0.00 | 91 | 1019.0 |
| 20260906044552 | 66 | 0 | 0.0 | 0.0 | 0.00 | 0.00 | 0.00 | 91 | 1018.8 |
| 20260906044047 | 66 | 0 | 0.0 | 0.0 | 0.00 | 0.00 | 0.00 | 91 | 1018.8 |
| 20260906043546 | 66 | 0 | 0.0 | 0.0 | 0.00 | 0.00 | 0.00 | 91 | 1018.7 |
| 20260906043100 | 67 | 0 | 0.0 | 0.0 | 0.00 | 0.00 | 0.00 | 91 | 1018.6 |
| 20260906042546 | 67 | 0 | 0.0 | 0.0 | 0.00 | 0.00 | 0.00 | 91 | 1018.5 |
| 20260906042142 | 67 | 0 | 0.0 | 0.0 | 0.00 | 0.00 | 0.00 | 91 | 1018.6 |
| 20260906041604 | 67 | 0 | 0.0 | 0.0 | 0.00 | 0.00 | 0.00 | 91 | 1018.6 |
| 20260906041048 | 67 | 0 | 0.0 | 0.0 | 0.00 | 0.00 | 0.00 | 91 | 1018.5 |
| 20260906040546 | 67 | 0 | 0.0 | 2.6 | 0.00 | 0.00 | 0.00 | 91 | 1018.5 |
| 20260906035548 | 67 | 0 | 0.0 | 1.7 | 0.00 | 0.00 | 0.00 | 91 | 1018.4 |
| 20260906035048 | 67 | 0 | 0.0 | 0.0 | 0.00 | 0.00 | 0.00 | 91 | 1018.3 |
| 20260906034600 | 67 | 0 | 0.0 | 3.5 | 0.00 | 0.00 | 0.00 | 91 | 1018.3 |
| 20260906034049 | 68 | 0 | 0.0 | 3.5 | 0.00 | 0.00 | 0.00 | 91 | 1018.1 |
| 20260906033548 | 68 | 0 | 0.0 | 2.6 | 0.00 | 0.00 | 0.00 | 90 | 1018.0 |
| 20260906033131 | 68 | 0 | 0.0 | 1.7 | 0.00 | 0.00 | 0.00 | 90 | 1017.9 |
| 20260906032546 | 68 | 0 | 0.0 | 3.5 | 0.00 | 0.00 | 0.00 | 90 | 1018.0 |
| 20260906032047 | 68 | 67 | 0.0 | 3.5 | 0.00 | 0.00 | 0.00 | 90 | 1018.1 |
| 20260906031615 | 68 | 82 | 0.9 | 3.5 | 0.00 | 0.00 | 0.00 | 90 | 1018.1 |
| 20260906031048 | 68 | 0 | 0.0 | 4.3 | 0.00 | 0.00 | 0.00 | 90 | 1018.0 |
| 20260906030549 | 69 | 63 | 1.7 | 4.3 | 0.00 | 0.00 | 0.00 | 90 | 1018.0 |
| 20260906030106 | 69 | 0 | 1.7 | 4.3 | 0.00 | 0.00 | 0.00 | 90 | 1017.8 |
| 20260906025544 | 69 | 0 | 0.0 | 7.0 | 0.00 | 0.00 | 0.00 | 90 | 1017.8 |
| 20260906025048 | 69 | 66 | 1.7 | 7.0 | 0.00 | 0.00 | 0.00 | 90 | 1017.9 |
| 20260906024607 | 69 | 93 | 2.6 | 5.2 | 0.00 | 0.00 | 0.00 | 90 | 1017.8 |
| 20260906024050 | 69 | 88 | 1.7 | 5.2 | 0.00 | 0.00 | 0.00 | 90 | 1017.7 |
| 20260906023547 | 70 | 67 | 1.7 | 5.2 | 0.00 | 0.00 | 0.00 | 90 | 1017.7 |
| 20260906023104 | 70 | 360 | 2.6 | 5.2 | 0.00 | 0.00 | 0.00 | 90 | 1017.7 |
| 20260906022548 | 70 | 360 | 1.7 | 5.2 | 0.00 | 0.00 | 0.00 | 90 | 1017.6 |
| 20260906022048 | 70 | 360 | 2.6 | 7.0 | 0.00 | 0.00 | 0.00 | 90 | 1017.5 |
| 20260906021615 | 70 | 0 | 2.6 | 7.0 | 0.00 | 0.00 | 0.00 | 90 | 1017.4 |
| 20260906021048 | 70 | 360 | 1.7 | 5.2 | 0.00 | 0.00 | 0.00 | 90 | 1017.3 |
| 20260906020547 | 70 | 360 | 1.7 | 5.2 | 0.00 | 0.00 | 0.00 | 89 | 1017.2 |
| 20260906015547 | 70 | 360 | 1.7 | 5.2 | 0.00 | 0.00 | 0.00 | 89 | 1017.0 |
| 20260906015046 | 70 | 0 | 1.7 | 5.2 | 0.00 | 0.00 | 0.00 | 89 | 1017.0 |
| 20260906014556 | 70 | 0 | 1.7 | 5.2 | 0.00 | 0.00 | 0.00 | 89 | 1016.8 |
| 20260906014050 | 71 | 360 | 2.6 | 7.8 | 0.00 | 0.00 | 0.00 | 89 | 1016.7 |
| 20260906013550 | 71 | 360 | 1.7 | 8.7 | 0.00 | 0.00 | 0.00 | 88 | 1016.6 |
| 20260906013107 | 71 | 360 | 2.6 | 8.7 | 0.00 | 0.00 | 0.00 | 88 | 1016.6 |
| 20260906012545 | 71 | 360 | 3.5 | 8.7 | 0.00 | 0.00 | 0.00 | 88 | 1016.5 |
| 20260906012047 | 71 | 360 | 2.6 | 5.2 | 0.00 | 0.00 | 0.00 | 88 | 1016.6 |
| 20260906011607 | 71 | 360 | 2.6 | 4.3 | 0.00 | 0.00 | 0.00 | 88 | 1016.6 |
| 20260906011049 | 72 | 360 | 0.9 | 4.3 | 0.00 | 0.00 | 0.00 | 87 | 1016.6 |
| 20260906010548 | 72 | 0 | 1.7 | 5.2 | 0.00 | 0.00 | 0.00 | 87 | 1016.7 |
| 20260906010100 | 72 | 360 | 1.7 | 5.2 | 0.00 | 0.00 | 0.00 | 86 | 1016.5 |
| 20260906005548 | 72 | 360 | 1.7 | 5.2 | 0.00 | 0.00 | 0.00 | 86 | 1016.6 |
| 20260906005048 | 73 | 360 | 0.9 | 4.3 | 0.00 | 0.00 | 0.00 | 85 | 1016.6 |
| 20260906004600 | 73 | 360 | 0.9 | 4.3 | 0.00 | 0.00 | 0.00 | 85 | 1016.7 |
| 20260906004047 | 73 | 0 | 0.0 | 3.5 | 0.00 | 0.00 | 0.00 | 84 | 1016.8 |
| 20260906003547 | 73 | 360 | 0.0 | 0.9 | 0.00 | 0.00 | 0.00 | 84 | 1016.8 |
| 20260906003057 | 73 | 0 | 0.0 | 1.7 | 0.00 | 0.00 | 0.00 | 83 | 1016.8 |
| 20260906002547 | 74 | 0 | 0.0 | 1.7 | 0.00 | 0.00 | 0.00 | 83 | 1016.9 |
| 20260906002049 | 74 | 0 | 0.0 | 3.5 | 0.00 | 0.00 | 0.00 | 83 | 1016.9 |
| 20260906001604 | 74 | 0 | 0.0 | 3.5 | 0.00 | 0.00 | 0.00 | 83 | 1016.9 |
| 20260906001048 | 75 | 79 | 0.0 | 1.7 | 0.00 | 0.00 | 0.00 | 82 | 1017.0 |
| 20260906000551 | 75 | 0 | 0.0 | 1.7 | 0.00 | 0.00 | 0.00 | 81 | 1017.0 |
| 20260906000108 | 75 | 0 | 0.0 | 2.6 | 0.00 | 0.00 | 0.00 | 81 | 1017.0 |
| 20260905235549 | 75 | 0 | 0.0 | 2.6 | 0.00 | 0.00 | 0.00 | 80 | 1017.0 |
| 20260905235048 | 76 | 62 | 0.0 | 0.9 | 0.00 | 0.00 | 0.00 | 80 | 1016.9 |
| 20260905234602 | 76 | 0 | 0.0 | 0.0 | 0.00 | 0.00 | 0.00 | 79 | 1016.9 |
| 20260905234047 | 77 | 0 | 0.0 | 0.0 | 0.00 | 0.00 | 0.00 | 78 | 1016.8 |
| 20260905233549 | 77 | 0 | 0.0 | 0.0 | 0.00 | 0.00 | 0.00 | 77 | 1016.7 |
| 20260905233103 | 77 | 0 | 0.0 | 2.6 | 0.00 | 0.00 | 0.00 | 77 | 1016.6 |
| 20260905232544 | 78 | 0 | 0.0 | 2.6 | 0.00 | 0.00 | 0.00 | 76 | 1016.6 |
| 20260905232050 | 78 | 36 | 0.0 | 2.6 | 0.00 | 0.00 | 0.00 | 75 | 1016.7 |
| 20260905231554 | 78 | 0 | 0.0 | 0.0 | 0.00 | 0.00 | 0.00 | 76 | 1016.7 |
| 20260905231047 | 79 | 0 | 0.0 | 3.5 | 0.00 | 0.00 | 0.00 | 76 | 1016.8 |
| 20260905230550 | 79 | 0 | 0.0 | 7.0 | 0.00 | 0.00 | 0.00 | 74 | 1016.8 |
| 20260905230103 | 79 | 0 | 0.9 | 7.0 | 0.00 | 0.00 | 0.00 | 74 | 1016.8 |
| 20260905225544 | 79 | 76 | 0.9 | 7.0 | 0.00 | 0.00 | 0.00 | 74 | 1016.7 |
| 20260905225051 | 79 | 0 | 0.0 | 2.6 | 0.00 | 0.00 | 0.00 | 77 | 1016.6 |
| 20260905224556 | 78 | 0 | 0.0 | 0.0 | 0.00 | 0.00 | 0.00 | 77 | 1016.7 |
| 20260905224046 | 78 | 0 | 0.0 | 0.0 | 0.00 | 0.00 | 0.00 | 76 | 1016.7 |
| 20260905223547 | 78 | 0 | 0.0 | 0.0 | 0.00 | 0.00 | 0.00 | 76 | 1016.8 |
| 20260905223054 | 78 | 0 | 0.0 | 0.9 | 0.00 | 0.00 | 0.00 | 77 | 1016.7 |
| 20260905222548 | 78 | 0 | 0.0 | 5.2 | 0.00 | 0.00 | 0.00 | 76 | 1016.8 |
| 20260905222047 | 78 | 0 | 0.0 | 7.8 | 0.00 | 0.00 | 0.00 | 76 | 1016.8 |
| 20260905221604 | 78 | 76 | 2.6 | 7.8 | 0.00 | 0.00 | 0.00 | 76 | 1016.6 |
| 20260905221047 | 79 | 0 | 0.0 | 3.5 | 0.00 | 0.00 | 0.00 | 78 | 1016.6 |
| 20260905220545 | 79 | 0 | 0.0 | 3.5 | 0.00 | 0.00 | 0.00 | 75 | 1016.6 |
| 20260905220059 | 79 | 352 | 0.0 | 3.5 | 0.00 | 0.00 | 0.00 | 74 | 1016.5 |
| 20260905215547 | 80 | 352 | 0.9 | 7.0 | 0.00 | 0.00 | 0.00 | 74 | 1016.3 |
| 20260905215044 | 80 | 0 | 1.7 | 7.0 | 0.00 | 0.00 | 0.00 | 75 | 1016.2 |
| 20260905214556 | 80 | 73 | 0.0 | 3.5 | 0.00 | 0.00 | 0.00 | 77 | 1016.2 |
| 20260905214050 | 80 | 0 | 0.0 | 3.5 | 0.00 | 0.00 | 0.00 | 74 | 1016.4 |
| 20260905213543 | 80 | 0 | 0.0 | 2.6 | 0.00 | 0.00 | 0.00 | 75 | 1016.4 |
| 20260905213110 | 80 | 0 | 0.0 | 4.3 | 0.00 | 0.00 | 0.00 | 75 | 1016.5 |
| 20260905212547 | 79 | 0 | 0.0 | 4.3 | 0.00 | 0.00 | 0.00 | 75 | 1016.7 |
| 20260905212047 | 80 | 351 | 1.7 | 4.3 | 0.00 | 0.00 | 0.00 | 73 | 1016.6 |
| 20260905211607 | 80 | 350 | 0.0 | 4.3 | 0.00 | 0.00 | 0.00 | 71 | 1016.7 |
| 20260905211051 | 80 | 44 | 0.0 | 4.3 | 0.00 | 0.00 | 0.00 | 73 | 1016.6 |
| 20260905210544 | 80 | 59 | 0.0 | 4.3 | 0.00 | 0.00 | 0.00 | 74 | 1016.7 |
| 20260905210106 | 79 | 0 | 0.9 | 3.5 | 0.00 | 0.00 | 0.00 | 75 | 1016.8 |
| 20260905205547 | 79 | 0 | 0.0 | 3.5 | 0.00 | 0.00 | 0.00 | 76 | 1016.8 |
| 20260905205050 | 78 | 0 | 0.0 | 4.3 | 0.00 | 0.00 | 0.00 | 76 | 1016.8 |
| 20260905204608 | 78 | 342 | 0.0 | 4.3 | 0.00 | 0.00 | 0.00 | 75 | 1017.0 |
| 20260905204053 | 78 | 344 | 0.0 | 3.5 | 0.00 | 0.00 | 0.00 | 77 | 1017.0 |
| 20260905203547 | 78 | 0 | 0.0 | 3.5 | 0.00 | 0.00 | 0.00 | 77 | 1016.9 |
| 20260905203119 | 78 | 0 | 0.0 | 3.5 | 0.00 | 0.00 | 0.00 | 76 | 1017.0 |
| 20260905202543 | 78 | 0 | 0.0 | 7.8 | 0.00 | 0.00 | 0.00 | 78 | 1016.9 |
| 20260905202048 | 78 | 0 | 0.0 | 9.6 | 0.00 | 0.00 | 0.00 | 76 | 1016.8 |
| 20260905201610 | 78 | 72 | 5.2 | 9.6 | 0.00 | 0.00 | 0.00 | 76 | 1016.7 |
| 20260905201047 | 79 | 59 | 2.6 | 7.8 | 0.00 | 0.00 | 0.00 | 78 | 1016.6 |
| 20260905200548 | 78 | 107 | 1.7 | 9.6 | 0.00 | 0.00 | 0.00 | 78 | 1016.5 |
| 20260905200120 | 78 | 56 | 3.5 | 9.6 | 0.00 | 0.00 | 0.00 | 78 | 1016.5 |
| 20260905195550 | 78 | 55 | 1.7 | 8.7 | 0.00 | 0.00 | 0.00 | 78 | 1016.6 |
| 20260905195044 | 78 | 82 | 3.5 | 8.7 | 0.00 | 0.00 | 0.00 | 77 | 1016.7 |
| 20260905194607 | 78 | 0 | 0.0 | 3.5 | 0.00 | 0.00 | 0.00 | 80 | 1016.8 |
| 20260905194051 | 77 | 90 | 0.0 | 8.7 | 0.00 | 0.00 | 0.00 | 80 | 1016.9 |
| 20260905193550 | 77 | 0 | 0.0 | 8.7 | 0.00 | 0.00 | 0.00 | 79 | 1016.9 |
| 20260905193059 | 77 | 55 | 1.7 | 8.7 | 0.00 | 0.00 | 0.00 | 78 | 1017.0 |
| 20260905192547 | 77 | 305 | 0.0 | 6.1 | 0.00 | 0.00 | 0.00 | 80 | 1017.0 |
| 20260905192044 | 77 | 70 | 0.9 | 7.0 | 0.00 | 0.00 | 0.00 | 79 | 1017.0 |
| 20260905191602 | 77 | 16 | 2.6 | 7.0 | 0.00 | 0.00 | 0.00 | 80 | 1017.0 |
| 20260905191050 | 78 | 0 | 0.0 | 7.0 | 0.00 | 0.00 | 0.00 | 79 | 1017.0 |
| 20260905190547 | 78 | 75 | 2.6 | 7.0 | 0.00 | 0.00 | 0.00 | 79 | 1017.1 |
| 20260905190101 | 78 | 100 | 0.0 | 3.5 | 0.00 | 0.00 | 0.00 | 78 | 1017.0 |
| 20260905185543 | 78 | 94 | 0.0 | 3.5 | 0.00 | 0.00 | 0.00 | 78 | 1017.1 |
| 20260905185046 | 78 | 0 | 0.9 | 7.0 | 0.00 | 0.00 | 0.00 | 78 | 1017.1 |
| 20260905184606 | 78 | 0 | 0.0 | 7.0 | 0.00 | 0.00 | 0.00 | 79 | 1017.1 |
| 20260905184046 | 78 | 77 | 0.9 | 6.1 | 0.00 | 0.00 | 0.00 | 80 | 1017.1 |
| 20260905183543 | 78 | 0 | 1.7 | 6.1 | 0.00 | 0.00 | 0.00 | 80 | 1017.2 |
| 20260905183103 | 77 | 71 | 0.0 | 4.3 | 0.00 | 0.00 | 0.00 | 82 | 1017.3 |
| 20260905182543 | 77 | 49 | 0.9 | 4.3 | 0.00 | 0.00 | 0.00 | 81 | 1017.2 |
| 20260905182045 | 77 | 332 | 0.0 | 5.2 | 0.00 | 0.00 | 0.00 | 82 | 1017.3 |
| 20260905181606 | 77 | 0 | 0.9 | 5.2 | 0.00 | 0.00 | 0.00 | 83 | 1017.3 |
| 20260905181042 | 76 | 78 | 0.9 | 7.8 | 0.00 | 0.00 | 0.00 | 85 | 1017.2 |
| 20260905180546 | 76 | 96 | 3.5 | 7.8 | 0.00 | 0.00 | 0.00 | 83 | 1017.2 |
| 20260905180106 | 76 | 98 | 0.0 | 5.2 | 0.00 | 0.00 | 0.00 | 85 | 1017.3 |
| 20260905175545 | 75 | 0 | 0.0 | 7.0 | 0.00 | 0.05 | 0.00 | 85 | 1017.3 |
| 20260905175049 | 75 | 76 | 1.7 | 7.0 | 0.00 | 0.05 | 0.00 | 84 | 1017.3 |
| 20260905174557 | 75 | 73 | 1.7 | 7.0 | 0.00 | 0.05 | 0.00 | 85 | 1017.4 |
| 20260905174050 | 75 | 0 | 0.9 | 4.3 | 0.00 | 0.05 | 0.00 | 86 | 1017.4 |
| 20260905173547 | 74 | 0 | 0.0 | 4.3 | 0.00 | 0.05 | 0.00 | 86 | 1017.5 |
| 20260905173106 | 74 | 0 | 0.0 | 3.5 | 0.00 | 0.05 | 0.00 | 89 | 1017.4 |
| 20260905172544 | 73 | 138 | 0.0 | 3.5 | 0.00 | 0.05 | 0.00 | 89 | 1017.4 |
| 20260905172044 | 73 | 81 | 0.9 | 3.5 | 0.00 | 0.05 | 0.00 | 88 | 1017.3 |
| 20260905171602 | 72 | 0 | 0.9 | 3.5 | 0.00 | 0.05 | 0.00 | 89 | 1017.5 |
| 20260905171043 | 72 | 0 | 0.0 | 2.6 | 0.00 | 0.05 | 0.00 | 89 | 1017.5 |
| 20260905170543 | 72 | 0 | 0.0 | 2.6 | 0.00 | 0.05 | 0.00 | 90 | 1017.6 |
| 20260905170114 | 72 | 0 | 0.0 | 4.3 | 0.00 | 0.05 | 0.00 | 89 | 1017.6 |
| 20260905165542 | 72 | 0 | 0.9 | 7.0 | 0.00 | 0.05 | 0.00 | 90 | 1017.6 |
| 20260905165045 | 72 | 67 | 0.9 | 7.0 | 0.00 | 0.05 | 0.00 | 90 | 1017.6 |
| 20260905164559 | 72 | 88 | 0.0 | 3.5 | 0.00 | 0.05 | 0.00 | 91 | 1017.7 |
| 20260905164041 | 72 | 0 | 0.0 | 3.5 | 0.00 | 0.05 | 0.00 | 91 | 1017.7 |
| 20260905163542 | 71 | 84 | 0.0 | 2.6 | 0.00 | 0.05 | 0.00 | 91 | 1017.7 |
| 20260905163103 | 71 | 0 | 0.0 | 1.7 | 0.00 | 0.05 | 0.00 | 91 | 1017.7 |
| 20260905162544 | 71 | 0 | 0.0 | 3.5 | 0.00 | 0.05 | 0.00 | 91 | 1017.7 |
| 20260905162044 | 71 | 49 | 0.0 | 3.5 | 0.00 | 0.05 | 0.00 | 92 | 1017.7 |
| 20260905161600 | 71 | 49 | 0.9 | 5.2 | 0.00 | 0.05 | 0.00 | 91 | 1017.7 |
| 20260905161042 | 71 | 78 | 1.7 | 5.2 | 0.00 | 0.05 | 0.00 | 92 | 1017.6 |
| 20260905160542 | 71 | 74 | 0.9 | 7.8 | 0.00 | 0.05 | 0.00 | 92 | 1017.6 |
| 20260905160059 | 71 | 56 | 1.7 | 7.8 | 0.00 | 0.05 | 0.00 | 92 | 1017.4 |
| 20260905155628 | 71 | 53 | 2.6 | 7.0 | 0.00 | 0.05 | 0.00 | 92 | 1017.4 |
| 20260905155043 | 71 | 69 | 4.3 | 7.8 | 0.00 | 0.05 | 0.00 | 92 | 1017.4 |
| 20260905154613 | 71 | 96 | 1.7 | 7.8 | 0.00 | 0.05 | 0.00 | 92 | 1017.5 |
| 20260905154049 | 71 | 76 | 2.6 | 6.1 | 0.00 | 0.05 | 0.00 | 93 | 1017.5 |
| 20260905153549 | 70 | 0 | 0.9 | 4.3 | 0.00 | 0.05 | 0.00 | 93 | 1017.5 |
| 20260905153101 | 70 | 19 | 0.9 | 6.1 | 0.00 | 0.05 | 0.00 | 93 | 1017.4 |
| 20260905152548 | 70 | 44 | 2.6 | 6.1 | 0.00 | 0.05 | 0.00 | 94 | 1017.4 |
| 20260905152047 | 70 | 69 | 0.9 | 7.0 | 0.00 | 0.05 | 0.00 | 94 | 1017.4 |
| 20260905151612 | 70 | 71 | 0.9 | 7.0 | 0.00 | 0.05 | 0.00 | 94 | 1017.4 |
| 20260905151047 | 70 | 0 | 0.9 | 5.2 | 0.00 | 0.05 | 0.00 | 94 | 1017.4 |
| 20260905150547 | 70 | 0 | 0.0 | 4.3 | 0.00 | 0.05 | 0.00 | 94 | 1017.2 |
| 20260905150058 | 70 | 0 | 0.9 | 7.8 | 0.00 | 0.05 | 0.00 | 94 | 1017.2 |
| 20260905145548 | 70 | 18 | 0.9 | 7.8 | 0.00 | 0.19 | 0.00 | 94 | 1017.2 |
| 20260905145047 | 70 | 63 | 2.6 | 7.8 | 0.00 | 0.19 | 0.00 | 95 | 1017.0 |
| 20260905144604 | 70 | 48 | 2.6 | 7.8 | 0.00 | 0.19 | 0.00 | 95 | 1017.0 |
| 20260905144049 | 70 | 89 | 0.9 | 7.0 | 0.00 | 0.19 | 0.00 | 95 | 1017.0 |
| 20260905143546 | 70 | 76 | 2.6 | 7.0 | 0.00 | 0.19 | 0.00 | 95 | 1016.8 |
| 20260905143104 | 70 | 0 | 1.7 | 7.0 | 0.00 | 0.19 | 0.00 | 95 | 1016.8 |
| 20260905142551 | 70 | 76 | 1.7 | 9.6 | 0.00 | 0.19 | 0.00 | 95 | 1016.7 |
| 20260905142047 | 70 | 69 | 1.7 | 9.6 | 0.00 | 0.19 | 0.00 | 95 | 1016.7 |
| 20260905141604 | 70 | 92 | 4.3 | 9.6 | 0.00 | 0.19 | 0.00 | 95 | 1016.4 |
| 20260905141047 | 70 | 65 | 2.6 | 6.1 | 0.00 | 0.19 | 0.00 | 95 | 1016.2 |
| 20260905140548 | 70 | 74 | 2.6 | 7.0 | 0.00 | 0.19 | 0.00 | 95 | 1016.3 |
| 20260905140057 | 70 | 72 | 2.6 | 7.8 | 0.00 | 0.19 | 0.00 | 95 | 1016.3 |
| 20260905135547 | 70 | 85 | 3.5 | 7.8 | 0.00 | 0.33 | 0.00 | 95 | 1016.2 |
| 20260905135047 | 70 | 74 | 0.9 | 4.3 | 0.00 | 0.33 | 0.00 | 95 | 1016.2 |
| 20260905134605 | 70 | 56 | 0.9 | 7.0 | 0.00 | 0.33 | 0.00 | 95 | 1016.2 |
| 20260905134048 | 70 | 0 | 0.9 | 7.0 | 0.00 | 0.33 | 0.00 | 95 | 1016.1 |
| 20260905133549 | 70 | 78 | 1.7 | 7.0 | 0.00 | 0.33 | 0.00 | 95 | 1016.0 |
| 20260905133103 | 70 | 71 | 1.7 | 7.8 | 0.00 | 0.33 | 0.00 | 95 | 1016.0 |
| 20260905132548 | 70 | 78 | 3.5 | 7.8 | 0.00 | 0.33 | 0.00 | 95 | 1015.8 |
| 20260905132050 | 70 | 84 | 2.6 | 7.0 | 0.00 | 0.33 | 0.00 | 95 | 1015.9 |
| 20260905131607 | 70 | 105 | 0.9 | 6.1 | 0.00 | 0.33 | 0.00 | 95 | 1016.0 |
| 20260905131047 | 70 | 70 | 1.7 | 7.0 | 0.00 | 0.33 | 0.00 | 95 | 1015.9 |
| 20260905130547 | 70 | 69 | 2.6 | 7.8 | 0.00 | 0.33 | 0.00 | 95 | 1015.9 |
| 20260905130056 | 70 | 100 | 2.6 | 7.8 | 0.00 | 0.33 | 0.00 | 95 | 1015.7 |
| 20260905125546 | 70 | 69 | 3.5 | 7.8 | 0.00 | 0.33 | 0.00 | 95 | 1015.7 |
| 20260905125045 | 70 | 87 | 0.9 | 5.2 | 0.00 | 0.33 | 0.00 | 95 | 1015.7 |
| 20260905124603 | 70 | 0 | 0.9 | 6.1 | 0.00 | 0.33 | 0.00 | 95 | 1015.7 |
| 20260905124045 | 70 | 0 | 0.9 | 6.1 | 0.00 | 0.33 | 0.00 | 95 | 1015.8 |
| 20260905123542 | 70 | 86 | 0.0 | 4.3 | 0.00 | 0.33 | 0.00 | 95 | 1015.7 |